WZZ52S EGKK-LOWI

Flight info

Callsign WZZ52S
Flight time N/A
Altitude 33000
Route ODVIK Y311 DVR L9 KONAN DCT KOK UL607 FERDI DCT REMBA DCT LIRSU DCT KRH DCT TEDGO DCT BATUB M738 MADEB MADEB1B
Aircraft A320/M-SDE3FGHIRWY/LB1

Departure

Time N/A
Airport London Gatwick Airport (EGKK)

Arrival

Time 2026-05-06 14:02
Airport Innsbruck Airport (LOWI)
Time Latitude Longitude Altitude Speed Heading
2026-05-06 12:46 50.77503 4.34910 32895 ft 444 kts 109°
2026-05-06 12:47 50.76575 4.39632 32895 ft 444 kts 109°
2026-05-06 12:47 50.74732 4.48960 32897 ft 445 kts 109°
2026-05-06 12:48 50.72893 4.58214 32898 ft 445 kts 109°
2026-05-06 12:48 50.71030 4.67516 32892 ft 445 kts 108°
2026-05-06 12:49 50.69162 4.76832 32887 ft 445 kts 109°
2026-05-06 12:49 50.67296 4.86084 32885 ft 446 kts 110°
2026-05-06 12:50 50.65089 4.95167 32869 ft 443 kts 117°
2026-05-06 12:50 50.62448 5.03935 32876 ft 443 kts 117°
2026-05-06 12:51 50.59814 5.12712 32870 ft 443 kts 116°
2026-05-06 12:51 50.57166 5.21491 32859 ft 444 kts 117°
2026-05-06 12:52 50.54502 5.30271 32856 ft 445 kts 117°
2026-05-06 12:52 50.51848 5.38979 32859 ft 445 kts 117°
2026-05-06 12:53 50.49169 5.47736 32866 ft 445 kts 117°
2026-05-06 12:53 50.46483 5.56471 32859 ft 444 kts 117°
2026-05-06 12:54 50.43804 5.65156 32854 ft 445 kts 117°
2026-05-06 12:54 50.41105 5.73894 32847 ft 446 kts 117°
2026-05-06 12:55 50.38397 5.82647 32847 ft 446 kts 117°
2026-05-06 12:55 50.35679 5.91389 32841 ft 447 kts 117°
2026-05-06 12:56 50.32944 6.00125 32832 ft 447 kts 118°
2026-05-06 12:56 50.30220 6.08802 32814 ft 447 kts 118°
2026-05-06 12:57 50.27481 6.17533 32816 ft 448 kts 118°
2026-05-06 12:57 50.24720 6.26260 32803 ft 448 kts 118°
2026-05-06 12:58 50.21954 6.34975 32813 ft 448 kts 118°
2026-05-06 12:58 50.19161 6.43642 32782 ft 446 kts 123°
2026-05-06 12:59 50.15469 6.51252 32782 ft 443 kts 133°
2026-05-06 12:59 50.11499 6.58598 32790 ft 443 kts 132°
2026-05-06 13:00 50.07532 6.65959 32791 ft 444 kts 133°
2026-05-06 13:00 50.03564 6.73280 32796 ft 444 kts 133°
2026-05-06 13:01 49.99591 6.80569 32804 ft 444 kts 133°
2026-05-06 13:01 49.95597 6.87884 32784 ft 443 kts 134°
2026-05-06 13:02 49.91607 6.95176 32809 ft 443 kts 134°
2026-05-06 13:02 49.87618 7.02459 32812 ft 442 kts 134°
2026-05-06 13:03 49.83653 7.09661 32813 ft 442 kts 134°
2026-05-06 13:03 49.79656 7.16906 32812 ft 442 kts 134°
2026-05-06 13:04 49.76972 7.21764 32811 ft 442 kts 134°
2026-05-06 13:04 49.72968 7.28974 32801 ft 441 kts 134°
2026-05-06 13:05 49.69006 7.36105 32813 ft 440 kts 134°
2026-05-06 13:05 49.65020 7.43260 32809 ft 439 kts 134°
2026-05-06 13:06 49.61039 7.50392 32802 ft 439 kts 134°
2026-05-06 13:06 49.57053 7.57494 32800 ft 438 kts 134°
2026-05-06 13:07 49.53059 7.64599 32776 ft 438 kts 134°
2026-05-06 13:07 49.49096 7.71632 32774 ft 439 kts 134°
2026-05-06 13:08 49.45091 7.78717 32770 ft 439 kts 135°
2026-05-06 13:08 49.41074 7.85803 32774 ft 440 kts 135°
2026-05-06 13:09 49.37047 7.92886 32784 ft 440 kts 135°
2026-05-06 13:09 49.33020 7.99966 32793 ft 441 kts 135°
2026-05-06 13:10 49.28979 8.07037 32778 ft 441 kts 135°
2026-05-06 13:10 49.24951 8.14060 32784 ft 442 kts 135°
2026-05-06 13:11 49.20891 8.21125 32793 ft 442 kts 136°
2026-05-06 13:11 49.16824 8.28196 32817 ft 442 kts 136°
2026-05-06 13:12 49.12756 8.35234 32810 ft 442 kts 136°
2026-05-06 13:12 49.08708 8.42216 32814 ft 442 kts 136°
2026-05-06 13:13 49.04639 8.49231 32813 ft 442 kts 136°
2026-05-06 13:13 49.00561 8.56236 32812 ft 442 kts 136°
2026-05-06 13:14 48.96521 8.63291 32834 ft 443 kts 135°
2026-05-06 13:14 48.92589 8.70516 32826 ft 443 kts 134°
2026-05-06 13:15 48.88683 8.77729 32813 ft 441 kts 135°
2026-05-06 13:15 48.84771 8.84831 32783 ft 441 kts 136°
2026-05-06 13:16 48.80812 8.91956 32773 ft 442 kts 136°
2026-05-06 13:16 48.76840 8.99086 32784 ft 443 kts 136°
2026-05-06 13:17 48.72872 9.06203 32776 ft 442 kts 136°
2026-05-06 13:17 48.68901 9.13315 32786 ft 441 kts 136°
2026-05-06 13:18 48.64960 9.20339 32764 ft 440 kts 139°
2026-05-06 13:18 48.60346 9.26100 32766 ft 424 kts 156°
2026-05-06 13:19 48.54980 9.29444 32770 ft 416 kts 167°
2026-05-06 13:19 48.49500 9.32244 32795 ft 416 kts 167°
2026-05-06 13:20 48.44046 9.35042 32264 ft 418 kts 166°
2026-05-06 13:20 48.41290 9.36450 31752 ft 417 kts 166°
2026-05-06 13:20 48.38540 9.37854 31239 ft 418 kts 166°
2026-05-06 13:20 48.35786 9.39255 30737 ft 418 kts 166°
2026-05-06 13:21 48.33030 9.40654 30248 ft 419 kts 165°
2026-05-06 13:21 48.30259 9.42061 29745 ft 420 kts 165°
2026-05-06 13:21 48.27490 9.43468 29168 ft 421 kts 165°
2026-05-06 13:21 48.24722 9.44876 28582 ft 419 kts 165°
2026-05-06 13:22 48.21969 9.46276 28001 ft 416 kts 166°
2026-05-06 13:22 48.19233 9.47667 27461 ft 414 kts 166°
2026-05-06 13:22 48.16511 9.49047 26936 ft 412 kts 165°
2026-05-06 13:22 48.13844 9.50394 26423 ft 410 kts 165°
2026-05-06 13:23 48.11144 9.51752 25914 ft 408 kts 165°
2026-05-06 13:23 48.08456 9.53102 25418 ft 406 kts 165°
2026-05-06 13:23 48.05779 9.54445 24928 ft 405 kts 165°
2026-05-06 13:23 48.03135 9.55858 24430 ft 405 kts 159°
2026-05-06 13:24 48.00632 9.57819 23952 ft 406 kts 150°
2026-05-06 13:24 47.98326 9.60255 23493 ft 406 kts 146°
2026-05-06 13:24 47.96048 9.62734 22978 ft 404 kts 146°
2026-05-06 13:24 47.93784 9.65196 22417 ft 401 kts 146°
2026-05-06 13:25 47.91570 9.67594 21891 ft 396 kts 147°
2026-05-06 13:25 47.89362 9.69979 21485 ft 388 kts 147°
2026-05-06 13:25 47.87221 9.72289 21087 ft 371 kts 147°
2026-05-06 13:25 47.85180 9.74491 20703 ft 356 kts 147°
2026-05-06 13:26 47.83167 9.76648 20312 ft 365 kts 148°
2026-05-06 13:26 47.81123 9.78833 19932 ft 353 kts 148°
2026-05-06 13:26 47.79186 9.80915 19551 ft 337 kts 148°
2026-05-06 13:26 47.77320 9.82925 19187 ft 324 kts 149°
2026-05-06 13:27 47.75537 9.84837 18837 ft 318 kts 149°
2026-05-06 13:27 47.73751 9.86746 18475 ft 316 kts 149°
2026-05-06 13:27 47.71961 9.88655 18123 ft 316 kts 149°
2026-05-06 13:27 47.70178 9.90556 17726 ft 315 kts 149°
2026-05-06 13:28 47.68405 9.92447 17331 ft 314 kts 149°
2026-05-06 13:28 47.66635 9.94336 16955 ft 313 kts 149°
2026-05-06 13:28 47.64882 9.96207 16672 ft 308 kts 149°
2026-05-06 13:28 47.63146 9.98056 16412 ft 306 kts 149°
2026-05-06 13:29 47.61424 9.99887 16168 ft 304 kts 149°
2026-05-06 13:29 47.59707 10.01706 15910 ft 303 kts 149°
2026-05-06 13:29 47.58020 10.03493 15653 ft 301 kts 149°
2026-05-06 13:29 47.56320 10.05296 15402 ft 300 kts 149°
2026-05-06 13:30 47.54633 10.07087 15145 ft 298 kts 150°
2026-05-06 13:30 47.52948 10.08874 14861 ft 297 kts 149°
2026-05-06 13:30 47.51265 10.10658 14626 ft 296 kts 150°
2026-05-06 13:30 47.49589 10.12430 14385 ft 297 kts 150°
2026-05-06 13:31 47.47921 10.14193 14141 ft 294 kts 150°
2026-05-06 13:31 47.46266 10.15945 13892 ft 293 kts 149°
2026-05-06 13:31 47.44606 10.17703 13663 ft 293 kts 150°
2026-05-06 13:31 47.42966 10.19380 13394 ft 289 kts 153°
2026-05-06 13:32 47.41279 10.20963 13116 ft 287 kts 153°
2026-05-06 13:32 47.39583 10.22492 12849 ft 282 kts 154°
2026-05-06 13:32 47.37939 10.23959 12784 ft 270 kts 154°
2026-05-06 13:32 47.36376 10.25360 12792 ft 256 kts 154°
2026-05-06 13:33 47.34896 10.26771 12803 ft 254 kts 148°
2026-05-06 13:33 47.33602 10.28559 12800 ft 259 kts 135°
2026-05-06 13:33 47.32574 10.30744 12796 ft 262 kts 124°
2026-05-06 13:33 47.31868 10.33252 12792 ft 269 kts 111°
2026-05-06 13:34 47.31467 10.35967 12789 ft 272 kts 107°
2026-05-06 13:34 47.31097 10.38703 12792 ft 272 kts 107°
2026-05-06 13:34 47.30720 10.41443 12788 ft 272 kts 108°
2026-05-06 13:34 47.30345 10.44156 12795 ft 276 kts 107°
2026-05-06 13:35 47.29959 10.46926 12791 ft 276 kts 108°
2026-05-06 13:35 47.29574 10.49697 12783 ft 276 kts 107°
2026-05-06 13:35 47.29193 10.52462 12778 ft 276 kts 107°
2026-05-06 13:35 47.28814 10.55228 12773 ft 275 kts 107°
2026-05-06 13:36 47.28610 10.58058 12779 ft 281 kts 95°
2026-05-06 13:36 47.28718 10.60940 12787 ft 284 kts 91°
2026-05-06 13:36 47.28841 10.63842 12780 ft 284 kts 91°
2026-05-06 13:36 47.28957 10.66739 12762 ft 283 kts 92°
2026-05-06 13:37 47.29068 10.69649 12294 ft 292 kts 91°
2026-05-06 13:37 47.29182 10.72685 11773 ft 301 kts 91°
2026-05-06 13:37 47.29302 10.75805 11256 ft 310 kts 91°
2026-05-06 13:37 47.29427 10.79005 10733 ft 315 kts 90°
2026-05-06 13:38 47.29558 10.82194 10213 ft 309 kts 89°
2026-05-06 13:38 47.29688 10.85321 9706 ft 302 kts 89°
2026-05-06 13:38 47.29812 10.88380 9171 ft 297 kts 88°
2026-05-06 13:38 47.29928 10.91379 8662 ft 289 kts 89°
2026-05-06 13:39 47.30037 10.94303 8166 ft 283 kts 89°
2026-05-06 13:39 47.30144 10.97175 7688 ft 278 kts 89°
2026-05-06 13:39 47.30247 10.99988 7391 ft 268 kts 89°
2026-05-06 13:39 47.30346 11.02631 7277 ft 259 kts 88°
2026-05-06 13:40 47.30442 11.05188 7128 ft 241 kts 88°
2026-05-06 13:40 47.30552 11.07595 6810 ft 231 kts 90°
2026-05-06 13:40 47.30335 11.09851 6567 ft 216 kts 120°
2026-05-06 13:40 47.29633 11.11665 6548 ft 195 kts 118°
2026-05-06 13:41 47.29020 11.13432 6155 ft 192 kts 122°
2026-05-06 13:41 47.28327 11.15011 5889 ft 172 kts 121°
2026-05-06 13:41 47.27754 11.16482 5482 ft 162 kts 120°
2026-05-06 13:41 47.27192 11.17922 4957 ft 164 kts 114°
2026-05-06 13:42 47.26862 11.19437 4561 ft 154 kts 95°
2026-05-06 13:42 47.26742 11.21105 3729 ft 172 kts 95°
2026-05-06 13:42 47.26562 11.22836 3186 ft 168 kts 106°
2026-05-06 13:42 47.26224 11.24424 2770 ft 158 kts 109°
2026-05-06 13:43 47.25906 11.25932 2531 ft 148 kts 110°
2026-05-06 13:43 47.25593 11.27305 2425 ft 139 kts 101°
2026-05-06 13:43 47.25568 11.28738 2267 ft 140 kts 88°
2026-05-06 13:43 47.25612 11.30156 2252 ft 140 kts 86°
2026-05-06 13:44 47.25730 11.31589 2136 ft 138 kts 84°
2026-05-06 13:44 47.25873 11.32981 1976 ft 139 kts 83°
2026-05-06 13:44 47.26000 11.34219 1899 ft 110 kts 85°
2026-05-06 13:44 47.26141 11.35273 2127 ft 112 kts 76°
2026-05-06 13:45 47.26363 11.36456 2563 ft 141 kts 81°
2026-05-06 13:45 47.26788 11.39919 3781 ft 194 kts 81°
2026-05-06 13:45 47.27062 11.41951 4535 ft 210 kts 76°
2026-05-06 13:46 47.27373 11.44119 5339 ft 224 kts 79°
2026-05-06 13:46 47.27864 11.46369 6191 ft 237 kts 66°
2026-05-06 13:46 47.28564 11.48566 6991 ft 238 kts 77°
2026-05-06 13:46 47.28933 11.50933 7623 ft 243 kts 83°
2026-05-06 13:47 47.29609 11.53259 8374 ft 256 kts 55°
2026-05-06 13:47 47.30728 11.55321 9151 ft 261 kts 59°
2026-05-06 13:47 47.31706 11.57622 9436 ft 266 kts 64°
2026-05-06 13:47 47.32637 11.59977 9495 ft 266 kts 64°
2026-05-06 13:48 47.33563 11.62336 9496 ft 265 kts 64°
2026-05-06 13:48 47.34455 11.64729 9878 ft 266 kts 68°
2026-05-06 13:48 47.35239 11.67221 10657 ft 268 kts 70°
2026-05-06 13:48 47.35996 11.69771 11147 ft 286 kts 72°
2026-05-06 13:49 47.36814 11.72622 11482 ft 309 kts 72°
2026-05-06 13:49 47.37857 11.75427 11996 ft 327 kts 54°
2026-05-06 13:49 47.39632 11.77618 12659 ft 341 kts 28°
2026-05-06 13:49 47.41905 11.78609 12918 ft 339 kts 359°
2026-05-06 13:50 47.44249 11.78055 12980 ft 352 kts 332°
2026-05-06 13:50 47.46293 11.76012 12958 ft 361 kts 306°
2026-05-06 13:50 47.47545 11.72889 12975 ft 351 kts 282°
2026-05-06 13:50 47.47803 11.69377 12960 ft 340 kts 259°
2026-05-06 13:51 47.47323 11.66037 12964 ft 337 kts 252°
2026-05-06 13:51 47.46761 11.62658 12964 ft 338 kts 252°
2026-05-06 13:51 47.46195 11.59290 12974 ft 339 kts 252°
2026-05-06 13:51 47.45625 11.55909 12982 ft 339 kts 252°
2026-05-06 13:52 47.45055 11.52532 12986 ft 337 kts 253°
2026-05-06 13:52 47.44493 11.49193 12984 ft 334 kts 252°
2026-05-06 13:52 47.43927 11.45843 12988 ft 338 kts 252°
2026-05-06 13:52 47.43366 11.42517 12995 ft 339 kts 252°
2026-05-06 13:53 47.42799 11.39164 12985 ft 336 kts 252°
2026-05-06 13:53 47.42229 11.35808 13001 ft 337 kts 253°
2026-05-06 13:53 47.41660 11.32462 12988 ft 335 kts 252°
2026-05-06 13:53 47.41092 11.29127 13017 ft 335 kts 252°
2026-05-06 13:54 47.40521 11.25777 12991 ft 337 kts 253°
2026-05-06 13:54 47.39949 11.22427 12973 ft 337 kts 252°
2026-05-06 13:54 47.39373 11.19058 12967 ft 339 kts 252°
2026-05-06 13:54 47.38795 11.15688 12984 ft 339 kts 253°
2026-05-06 13:55 47.38216 11.12325 12969 ft 338 kts 253°
2026-05-06 13:55 47.37646 11.09002 12967 ft 338 kts 253°
2026-05-06 13:55 47.37087 11.05755 12976 ft 338 kts 253°
2026-05-06 13:55 47.36508 11.02392 12957 ft 338 kts 253°
2026-05-06 13:56 47.35930 10.99046 12979 ft 338 kts 252°
2026-05-06 13:56 47.35346 10.95676 12576 ft 336 kts 254°
2026-05-06 13:56 47.34726 10.92394 12049 ft 328 kts 246°
2026-05-06 13:56 47.33449 10.89706 11543 ft 316 kts 219°
2026-05-06 13:57 47.31557 10.88382 11049 ft 303 kts 190°
2026-05-06 13:57 47.29508 10.88675 10556 ft 299 kts 159°
2026-05-06 13:57 47.27885 10.90485 10062 ft 294 kts 130°
2026-05-06 13:57 47.27166 10.93285 9571 ft 297 kts 97°
2026-05-06 13:58 47.27323 10.96287 9053 ft 295 kts 78°
2026-05-06 13:58 47.28185 10.99016 8513 ft 293 kts 57°
2026-05-06 13:58 47.29328 11.01474 8010 ft 288 kts 57°
2026-05-06 13:58 47.30234 11.04055 7494 ft 281 kts 75°
2026-05-06 13:59 47.30492 11.06841 7119 ft 268 kts 93°
2026-05-06 13:59 47.30249 11.09403 6665 ft 250 kts 112°
2026-05-06 13:59 47.29539 11.11681 6210 ft 253 kts 118°
2026-05-06 13:59 47.28668 11.14029 5656 ft 264 kts 116°
2026-05-06 14:00 47.28028 11.16555 5375 ft 262 kts 107°
2026-05-06 14:00 47.27304 11.18995 5192 ft 260 kts 115°
2026-05-06 14:00 47.26422 11.21407 4420 ft 279 kts 117°
2026-05-06 14:00 47.25679 11.24011 3839 ft 272 kts 103°
2026-05-06 14:01 47.25524 11.26777 3098 ft 274 kts 88°
2026-05-06 14:01 47.25685 11.29576 2347 ft 271 kts 86°
2026-05-06 14:01 47.25802 11.32233 2053 ft 248 kts 85°
2026-05-06 14:01 47.26029 11.34516 1903 ft 216 kts 85°
2026-05-06 14:02 47.26204 11.35982 1904 ft 78 kts 76°
2026-05-06 14:02 47.26227 11.36301 1904 ft 2 kts 161°
2026-05-06 14:02 47.26212 11.36206 1896 ft 21 kts 261°
2026-05-06 14:02 47.26169 11.35840 1900 ft 49 kts 260°
2026-05-06 14:03 47.26125 11.35349 1893 ft 40 kts 261°
2026-05-06 14:03 47.26062 11.35259 1896 ft 11 kts 174°
2026-05-06 14:03 47.25975 11.35282 1902 ft 14 kts 169°
2026-05-06 14:03 47.25896 11.35262 1897 ft 6 kts 231°
2026-05-06 14:04 47.25889 11.35231 1904 ft 4 kts 260°
2026-05-06 14:04 47.25886 11.35185 1907 ft 5 kts 251°
2026-05-06 14:04 47.25849 11.35176 1903 ft 7 kts 176°
2026-05-06 14:04 47.25838 11.35177 1905 ft 0 kts 172°